Location: Newark
(7.1028°S, 35.3258°W)
Time: 08:18:02
(UTC+00:00)

Vanguard 3 - Pass Details

Date: 27 February 2020
Orbit: 508 x 3263 km, 33.4° (Epoch: 06 April)

Event Time Altitude Azimuth Distance (km) Brightness Sun altitude
Rises 21:13:53 0° 278° (W) 6,601 13.5 -8.7°
Reaches altitude 10° 21:18:24 10° 271° (W) 5,839 13.0 -9.8°
Maximum altitude 21:36:02 42° 206° (SSW) 4,109 11.0 -14.2°
Drops below altitude 10° 21:52:55 10° 139° (SE) 5,546 11.1 -18.3°
Sets 21:57:09 0° 132° (SE) 6,252 11.3 -19.3°
